OPS 4682 DEB, 19664

Orbit data source: Space-Track

OPS 4682 DEB, 19664 is space debris in LEO originally from a launch on Sat, 03 Apr 1965 UTC launched from the Air Force Western Test Range (AFWTR). Debris objects in space refer to the collection of defunct objects orbiting the Earth. Examples of debris include non-operational satellites, rocket bodies, and fragments generated from explosions, collisions, or faulty payload assembly.

Loading next visibility...
Identifier
19664, 1965-027AX
Orbit
LEO
Country
Flag of USUS
Related business
Manufacturer
Unknown
Mission
Spacecraft
Bus & Motor
Unknown
Mass
Unknown
Launch date (UTC)
1965-04-03 (61 years ago)
Launch vehicle
Unknown
Launch site
Air Force Western Test Range (AFWTR)
Object type
Payload
Rocket body
Debris
Shape & HBR
Unknown shape, 0.1 m
Radar Cross Section
Small (<0.1 m²)

Expand to show TLE details & history
Last TLE update: 2 days ago

TLE from 2 days ago
0 OPS 4682 DEB
1 19664U 65027AX  25300.10347727 -.00000195  00000-0 -63832-3 0  9999
2 19664  90.2388 352.6712 0028323  93.5460 295.5562 13.03744541 26160
Epoch: 2025-10-27T02:29Z
TLE epoch observation values (Epoch: 2025-10-27T02:29:00.436Z)
Latitude
28.8505°
Longitude
-80.42163°
Altitude
1,241.762 km
Speed
7.241 km/s
True Right ascension
23h 30m 09s
True Declination
28° 42' 53"
Sunlit
Object was in full shadow at epoch
Visualization orbit readout
Latitude
Unknown
Longitude
Unknown
Altitude
Unknown
Speed
Unknown
Apparent Right ascension
Unknown
Apparent Declination
Unknown
Sunlit
N/A
Visualization observer readout
Local Sidereal Time
21:13:07
Azimuth
Unknown
Elevation
Unknown
Doppler factor
Unknown
Orbital elements
Apogee altitude
1,266.162 km
Perigee altitude
1,222.982 km
Semi-major axis
7,622.709 km
Eccentricity
0.00283
Inclination
90.2388°
RAAN
352.6712°
Arg. of periapsis
93.546°
True anomaly
295.26295°
Mean anomaly
295.5562°
Eccentric anomaly
295.40962°
Mean motion
3.26121 °/min
Orbital period
110.39 mins
BSTAR
-0.00063832
Loading maneuver chart data...
Computing Atmospheric mass density...
Loading historical data...
Loading historical data...
Loading historical data...
Loading historical data...
Loading historical data...
Loading historical data...
Loading historical data...

Documentation

Showing up to 5 results
|